{"data":{"norad_id":59503,"epoch":"2026-05-24T18:02:09.020256Z","epoch_age_seconds":86637,"freshness":"FRESH","line1":"1 59503U 24071V   26144.75149329 -.00001598  00000+0 -48602-4 0  9991","line2":"2 59503  43.0016 270.5884 0001420 271.1310  88.9378 15.27558661119835","mean_motion":15.27558661,"eccentricity":0.000142,"inclination_deg":43.0016,"raan_deg":270.5884,"arg_perigee_deg":271.131,"mean_anomaly_deg":88.9378,"bstar":-4.8602e-5,"rev_number":11983,"period_min":94.26806555876,"perigee_km":482.13869592708,"apogee_km":484.08729092521,"semimajor_km":6861.2499934261,"source":"CELESTRAK","updated_at":"2026-05-25T13:38:18.972830Z"}}